Temperature
11 11 10 10 10 10 10 10 10 10 10 10 9 9 9 8 8 7 7 6 6 5 5 5 4 4 3 3 2 2 1 0 -0 0 0 -0 -1 -1 -1 -1 -1 -2 -2
11 11 10 10 10 10 10 10 10 10 10 9 9 9 8 8 7 7 6 6 6 5 5 4 4 3 3 3 2 2 1 0 -1 -1 -1 -1 -1 -2 -2 -2 -2 -3 -3
10 10 10 10 10 10 10 10 10 10 10 9 9 8 8 7 7 6 6 6 5 5 4 4 4 3 3 2 2 1 1 -0 -1 -1 -1 -2 -2 -2 -3 -3 -4 -4 -4
10 10 10 10 10 10 10 10 10 10 9 9 8 8 7 7 7 6 6 5 5 4 4 4 3 3 2 2 1 1 0 -1 -1 -2 -2 -2 -3 -3 -4 -4 -4 -4 -4
10 10 10 10 10 10 10 10 9 9 9 8 8 7 7 7 6 6 5 5 4 4 4 3 3 2 2 1 1 0 -1 -1 -2 -2 -3 -3 -4 -4 -4 -5 -5 -5 -5
10 10 10 9 9 9 9 9 9 9 8 8 7 7 7 6 6 5 5 4 4 3 3 3 2 2 1 1 0 -1 -1 -2 -2 -3 -3 -4 -4 -4 -5 -5 -5 -5 -5
10 9 9 9 9 9 9 8 8 8 8 7 7 6 6 6 5 5 4 4 3 3 3 2 2 1 1 0 -1 -1 -2 -2 -3 -3 -4 -4 -4 -5 -5 -5 -5 -5 -6
9 9 9 8 8 8 8 8 8 8 7 7 6 6 5 5 5 4 4 3 3 2 2 2 1 1 0 -1 -1 -2 -2 -2 -3 -4 -4 -4 -5 -5 -5 -5 -5 -5 -5
9 9 8 8 8 8 7 7 7 7 7 6 6 5 5 5 4 4 3 2 2 2 1 1 0 -0 -1 -2 -2 -2 -3 -3 -3 -4 -4 -5 -5 -5 -5 -5 -5 -6 -6
9 8 8 7 7 7 7 7 6 6 6 6 5 5 4 4 4 3 2 2 1 1 1 0 -0 -1 -2 -2 -3 -3 -3 -3 -4 -4 -5 -5 -5 -5 -5 -6 -6 -6 -7
8 7 7 7 6 6 6 6 5 5 5 5 4 4 4 3 3 2 2 1 1 0 -0 -1 -1 -2 -3 -3 -4 -4 -4 -4 -5 -5 -5 -5 -5 -6 -6 -6 -7 -7 -7
7 7 6 6 6 5 5 5 5 4 4 4 4 3 3 2 2 1 1 0 -0 -1 -1 -2 -2 -3 -4 -4 -4 -5 -5 -5 -5 -5 -6 -6 -6 -6 -6 -7 -7 -7 -8
6 6 5 5 5 4 4 4 4 4 3 3 3 2 2 2 1 0 -0 -1 -2 -2 -2 -3 -4 -4 -5 -5 -5 -5 -6 -6 -6 -6 -6 -6 -6 -7 -7 -7 -7 -8 -8
6 5 5 5 4 4 3 3 3 3 3 2 2 1 1 1 0 -0 -1 -2 -2 -3 -3 -4 -5 -5 -5 -5 -5 -6 -6 -6 -7 -7 -7 -7 -7 -8 -8 -8 -8 -8 -8
6 5 4 4 4 3 3 3 3 2 2 1 1 1 -0 -0 -1 -1 -2 -3 -3 -4 -5 -5 -5 -5 -6 -6 -6 -6 -7 -7 -7 -7 -7 -8 -8 -8 -8 -9 -9 -9 -9
5 5 4 3 3 3 2 2 2 1 1 1 0 -0 -1 -1 -2 -3 -3 -4 -4 -5 -6 -6 -6 -6 -6 -7 -7 -7 -7 -8 -8 -8 -8 -8 -8 -9 -9 -9 -9 -9 -9
4 4 3 3 2 2 2 1 1 1 0 -0 -1 -1 -2 -2 -3 -4 -4 -5 -5 -6 -6 -6 -7 -7 -7 -8 -8 -8 -8 -8 -8 -8 -9 -9 -9 -9 -10 -10 -10 -10 -10
4 3 3 2 2 1 1 0 0 -0 -1 -1 -2 -2 -3 -4 -4 -5 -5 -6 -6 -7 -7 -7 -8 -8 -8 -8 -9 -9 -9 -9 -9 -9 -9 -9 -10 -10 -10 -10 -10 -10 -10
3 2 2 1 1 1 0 -0 -1 -1 -2 -3 -3 -3 -4 -5 -5 -6 -6 -7 -7 -7 -8 -8 -8 -9 -9 -9 -9 -9 -9 -9 -10 -10 -10 -10 -10 -10 -11 -11 -10 -10 -10
2 1 1 1 0 -0 -1 -1 -2 -3 -3 -4 -4 -5 -6 -6 -7 -7 -7 -8 -8 -9 -9 -9 -9 -9 -10 -10 -10 -10 -10 -10 -10 -10 -10 -11 -11 -11 -11 -11 -11 -11 -10
1 1 0 -0 -1 -1 -2 -2 -3 -4 -5 -5 -6 -6 -7 -7 -8 -8 -8 -9 -9 -9 -10 -10 -10 -10 -10 -10 -10 -10 -11 -11 -11 -11 -11 -11 -11 -11 -11 -11 -11 -11 -11
0 -0 -1 -1 -2 -2 -3 -4 -5 -5 -6 -6 -7 -7 -8 -8 -9 -9 -9 -10 -10 -10 -10 -11 -11 -11 -11 -11 -11 -11 -11 -11 -11 -11 -11 -11 -12 -12 -12 -12 -11 -11 -11
-1 -1 -2 -2 -3 -4 -5 -5 -6 -6 -7 -7 -8 -8 -9 -9 -9 -10 -10 -10 -11 -11 -11 -11 -11 -11 -12 -12 -12 -12 -12 -12 -12 -12 -12 -12 -12 -12 -12 -12 -12 -12 -11
-2 -2 -3 -4 -4 -5 -6 -6 -7 -7 -8 -8 -9 -9 -9 -10 -10 -10 -11 -11 -11 -11 -12 -12 -12 -12 -12 -12 -12 -12 -12 -12 -12 -12 -12 -12 -12 -12 -12 -12 -12 -12 -12
-3 -4 -4 -5 -6 -6 -7 -7 -8 -8 -9 -9 -10 -10 -10 -10 -11 -11 -11 -11 -12 -12 -12 -12 -12 -12 -13 -13 -13 -13 -13 -13 -13 -13 -13 -13 -13 -13 -13 -13 -12 -12 -12
-4 -5 -5 -6 -6 -7 -8 -8 -9 -9 -9 -10 -10 -10 -11 -11 -11 -11 -11 -12 -12 -12 -12 -12 -12 -13 -13 -13 -13 -13 -13 -13 -13 -13 -13 -13 -13 -13 -13 -13 -12 -12 -12
Wind_Speed
11 10 10 10 10 11 11 11 11 10 11 11 10 10 9 8 7 6 6 6 6 5 4 5 6 5 4 4 4 5 6 6 10 9 6 6 6 7 10 13 16 17 18
11 10 11 10 11 11 11 11 11 11 11 10 10 9 9 8 7 7 7 6 6 6 6 6 7 5 6 6 5 7 7 7 8 12 7 5 7 7 7 8 12 16 17
11 11 11 11 12 12 11 11 11 11 11 10 10 10 9 8 7 7 6 6 6 6 6 6 7 7 7 6 7 7 7 7 7 8 9 6 6 7 8 9 10 10 15
11 11 11 12 12 11 11 11 11 11 11 10 9 9 8 8 7 6 5 5 5 5 6 7 7 8 8 8 8 8 7 7 7 8 9 7 7 7 7 8 9 6 9
11 11 11 11 10 10 11 11 10 10 10 9 9 8 8 7 7 7 6 6 6 6 7 7 8 11 13 12 9 8 7 7 7 8 10 9 8 7 7 7 10 9 8
11 10 10 10 10 11 11 11 10 9 9 9 9 8 8 7 10 12 9 6 7 7 8 8 9 11 15 19 21 19 15 10 9 9 10 11 11 9 8 9 9 10 9
10 10 10 11 11 10 11 11 10 10 9 8 8 8 8 8 11 12 13 8 7 8 8 8 9 9 13 9 14 18 17 20 19 13 11 12 12 10 10 11 10 11 13
10 10 10 11 10 10 10 10 9 8 8 8 7 8 7 8 11 12 13 8 7 8 9 9 9 10 9 10 8 8 9 10 13 10 10 12 12 11 11 12 13 12 10
10 10 10 11 11 11 10 10 7 7 6 6 7 7 7 7 11 12 11 6 7 9 9 9 10 9 16 18 11 9 9 9 15 20 22 21 24 24 19 10 8 10 12
9 9 9 10 10 10 9 7 6 6 6 6 5 6 7 7 10 12 12 5 7 7 7 8 13 14 17 19 10 9 10 10 9 11 13 16 14 16 20 11 7 9 10
8 9 9 9 9 8 7 6 6 5 5 5 5 5 6 7 9 12 13 6 7 7 7 6 7 16 19 20 17 10 15 16 10 9 9 8 7 7 7 7 6 7 9
9 9 8 8 7 7 7 6 6 6 5 5 4 5 5 5 7 10 14 13 11 8 7 6 8 17 20 21 17 18 23 21 9 7 8 7 6 6 6 6 7 7 9
9 9 8 8 6 6 6 6 5 5 4 4 4 4 4 4 6 12 14 15 16 10 8 14 17 21 20 15 18 23 20 10 7 8 8 7 5 6 5 5 6 6 8
9 8 7 7 6 5 4 4 4 4 4 4 4 5 5 4 4 5 5 7 11 11 10 14 19 20 17 17 17 14 9 8 8 8 7 6 4 4 4 4 5 5 6
9 7 6 5 5 4 3 3 4 4 5 5 5 5 5 6 8 11 8 6 6 8 9 7 6 7 7 7 8 8 7 7 8 5 5 5 5 5 5 4 4 5 5
8 6 5 4 4 3 2 1 2 4 6 8 8 7 7 11 14 15 16 17 18 18 14 8 8 8 9 8 8 7 6 6 6 5 5 5 5 5 5 5 4 5 6
7 6 4 4 3 2 2 2 2 4 6 8 10 12 12 14 16 16 17 18 19 18 10 8 9 8 8 7 7 7 6 5 5 5 5 4 5 5 5 5 5 5 6
7 6 5 3 2 2 2 2 2 3 4 4 7 12 14 15 16 16 18 16 10 9 7 8 8 8 7 7 6 6 5 5 4 4 4 4 4 4 5 6 5 6 6
5 4 3 2 1 1 1 2 2 4 4 5 4 6 12 14 15 16 15 7 7 7 7 7 7 7 7 6 6 5 5 5 5 4 4 5 4 5 5 6 6 9 7
4 4 2 1 0 1 1 2 3 4 5 5 6 6 5 6 5 6 6 6 7 7 7 7 7 7 6 6 6 5 5 5 5 4 4 4 4 5 6 7 6 5 5
3 2 1 0 1 2 2 3 4 4 5 6 6 8 13 7 6 7 6 6 6 7 7 7 7 7 6 5 5 6 6 6 5 5 4 4 4 4 5 5 5 5 5
2 1 0 1 2 2 3 4 4 5 6 7 6 8 15 9 6 7 7 7 6 6 6 6 6 6 6 5 5 6 6 6 5 4 4 5 5 5 5 5 5 5 5
1 0 1 2 3 5 5 4 4 5 6 7 7 7 7 7 7 7 7 7 6 6 6 6 6 6 5 5 5 5 6 6 5 5 5 5 5 5 5 5 6 6 5
0 1 2 3 3 3 4 5 5 6 6 7 7 7 7 7 7 8 8 7 7 7 6 6 6 8 9 7 6 6 6 7 6 5 6 6 6 5 5 5 6 6 6
1 2 2 3 3 4 5 5 6 6 7 8 8 8 7 8 8 8 8 7 8 8 8 7 6 7 9 9 8 8 13 16 15 10 6 6 7 7 7 7 6 6 6
2 2 3 3 3 4 5 6 6 7 7 8 8 8 8 8 9 8 8 7 7 7 8 7 8 9 10 9 11 14 17 18 17 17 9 6 7 7 7 7 8 8 8
Wind_Direction
176 171 166 166 161 157 159 159 156 153 155 159 160 160 163 168 171 175 184 187 196 208 210 216 231 231 232 234 232 233 236 235 263 274 267 279 290 297 307 308 307 304 302
170 167 166 161 157 158 160 159 156 155 158 160 159 161 167 172 176 181 192 193 199 214 222 225 236 237 238 237 237 240 242 240 254 275 280 279 281 287 289 291 300 300 298
166 165 163 162 162 163 162 160 157 156 158 158 160 166 171 174 179 187 192 197 206 216 221 227 237 239 247 246 244 247 249 255 254 271 283 280 282 286 290 289 286 286 292
166 166 167 168 167 165 162 160 159 158 160 163 165 168 171 174 180 187 193 201 216 228 233 235 239 240 246 249 253 252 254 261 266 273 281 284 282 280 282 288 291 277 284
168 170 171 167 164 161 160 159 157 158 161 161 162 167 170 175 186 189 195 206 222 239 246 245 246 247 251 255 257 251 248 256 264 271 278 284 283 284 281 283 290 289 277
168 170 164 162 161 161 160 156 155 157 158 160 168 172 179 189 197 201 200 207 219 231 244 249 251 254 259 265 268 268 262 259 260 265 275 278 280 278 282 284 289 294 292
166 163 161 160 161 161 157 155 159 163 163 169 175 179 189 199 204 213 217 214 223 234 242 250 261 260 266 258 267 271 271 271 270 270 272 273 279 279 279 281 278 280 285
161 161 160 158 159 156 158 162 165 166 170 175 182 186 193 206 212 222 227 225 232 242 246 250 256 260 259 265 257 256 253 259 265 270 266 269 271 271 266 273 278 281 279
161 160 159 158 158 159 164 167 165 165 171 176 180 186 199 216 221 226 230 223 236 247 251 254 259 262 273 279 275 267 266 263 273 276 277 279 282 288 290 290 287 291 293
159 154 152 153 156 161 163 162 159 162 169 172 184 196 207 221 229 231 233 223 240 251 254 255 265 273 280 282 275 268 272 273 270 275 276 279 282 284 288 283 277 283 289
137 136 139 144 149 152 152 152 152 156 163 179 197 212 219 226 236 240 242 232 233 248 255 257 261 279 282 283 282 275 277 283 274 269 270 270 271 270 270 266 259 261 277
125 128 131 134 139 144 147 152 156 160 174 194 210 229 236 236 240 249 255 257 259 253 258 260 267 281 283 284 285 283 286 290 283 277 274 271 269 270 266 265 264 257 256
121 124 126 126 131 141 150 157 162 168 182 203 212 231 245 244 252 259 264 268 271 270 269 276 281 285 287 287 286 287 288 283 273 273 271 266 258 259 263 272 275 268 268
123 125 127 131 137 140 143 153 164 181 194 209 223 237 248 252 254 257 258 270 276 278 280 281 285 286 286 284 285 285 275 266 269 266 265 263 261 263 269 272 278 283 285
121 123 125 128 133 138 147 169 182 200 201 210 224 228 242 257 260 269 276 272 268 270 285 279 274 276 269 268 271 269 266 267 272 260 263 268 269 271 274 270 272 280 279
124 125 126 128 131 139 152 197 236 235 247 249 252 256 261 269 282 285 287 289 291 291 291 282 279 277 277 277 278 275 269 265 261 258 257 260 267 274 278 273 272 274 278
123 125 124 129 139 155 170 193 256 286 273 272 275 280 281 286 290 292 293 294 293 294 287 279 279 280 279 277 275 274 273 268 264 259 256 257 263 270 275 275 273 274 274
112 118 126 136 148 167 194 217 232 257 280 283 282 284 288 290 292 294 296 298 292 287 272 276 279 280 278 277 277 278 275 271 263 258 255 256 259 270 278 275 272 270 274
110 115 117 121 133 182 230 249 258 264 270 278 283 288 290 293 295 294 297 287 281 279 275 276 278 280 280 278 275 274 268 263 260 257 256 253 251 256 269 273 269 275 280
104 113 113 120 162 259 263 264 269 272 276 280 282 283 292 294 287 288 282 273 276 279 280 279 277 277 276 273 272 268 264 261 258 254 253 254 253 255 263 269 268 266 267
102 106 106 143 236 251 258 263 267 272 277 281 281 291 301 298 289 286 283 279 277 280 282 281 279 277 273 271 270 267 265 263 253 248 251 252 253 261 263 262 264 264 267
96 107 184 242 257 263 274 269 274 278 282 286 290 297 301 297 288 285 283 283 277 275 274 275 276 272 268 266 267 269 268 265 255 247 251 252 252 257 261 266 266 264 264
88 272 275 272 270 286 294 284 283 283 285 288 292 293 292 285 284 285 284 282 279 277 275 273 274 271 266 262 257 256 259 260 252 244 245 250 252 254 254 260 267 268 264
292 273 276 282 283 280 282 284 285 287 288 288 289 289 288 287 287 289 289 287 284 281 277 274 273 272 271 270 265 258 253 254 249 239 235 241 248 251 249 252 258 261 260
292 286 287 286 287 288 290 291 290 290 291 294 295 295 294 294 293 292 290 286 286 284 282 279 275 274 272 269 267 263 270 274 272 261 234 231 238 239 242 248 255 258 252
298 297 296 294 292 291 292 292 292 293 294 296 296 293 292 292 290 289 288 286 285 285 284 280 275 274 273 273 271 274 279 277 275 271 257 235 232 235 236 243 246 248 248
Height
1451 1455 1460 1464 1468 1472 1476 1480 1483 1487 1490 1493 1496 1498 1500 1502 1504 1505 1505 1506 1506 1506 1506 1505 1504 1503 1502 1501 1499 1498 1496 1493 1487 1483 1483 1481 1479 1476 1474 1471 1468 1464 1461
1448 1452 1456 1460 1464 1468 1472 1476 1480 1483 1487 1489 1492 1494 1496 1498 1499 1500 1501 1501 1502 1501 1501 1500 1499 1498 1497 1496 1494 1492 1490 1487 1484 1477 1475 1474 1472 1470 1467 1464 1461 1458 1455
1445 1449 1453 1456 1460 1464 1468 1472 1476 1479 1482 1485 1488 1490 1492 1494 1495 1496 1497 1497 1497 1496 1496 1495 1494 1493 1491 1490 1488 1486 1484 1481 1478 1474 1469 1468 1465 1463 1460 1456 1454 1451 1448
1441 1445 1448 1452 1456 1460 1464 1468 1471 1475 1478 1481 1483 1486 1488 1489 1491 1491 1492 1492 1492 1491 1491 1490 1489 1487 1486 1484 1482 1479 1477 1475 1472 1468 1463 1460 1458 1456 1454 1450 1446 1444 1441
1437 1440 1444 1448 1453 1457 1460 1464 1467 1471 1474 1476 1479 1481 1483 1485 1486 1487 1487 1486 1486 1486 1485 1484 1483 1481 1479 1477 1475 1473 1471 1468 1465 1461 1457 1454 1451 1449 1447 1444 1440 1436 1433
1433 1437 1441 1445 1448 1452 1456 1460 1463 1466 1469 1472 1474 1477 1478 1480 1481 1481 1481 1481 1480 1479 1478 1477 1476 1474 1472 1470 1468 1466 1465 1462 1458 1455 1451 1448 1444 1443 1441 1438 1434 1429 1424
1429 1433 1437 1440 1444 1448 1452 1456 1459 1462 1465 1467 1470 1472 1473 1475 1476 1476 1475 1475 1474 1473 1472 1470 1468 1467 1465 1463 1461 1459 1457 1455 1452 1450 1445 1441 1439 1437 1434 1430 1427 1423 1419
1426 1429 1433 1437 1441 1445 1448 1451 1455 1458 1460 1463 1465 1467 1469 1470 1470 1470 1470 1469 1467 1466 1465 1463 1461 1459 1458 1456 1453 1450 1447 1446 1444 1442 1438 1435 1432 1430 1428 1424 1420 1416 1411
1422 1425 1429 1433 1437 1441 1444 1448 1451 1454 1456 1458 1461 1462 1463 1464 1465 1465 1464 1462 1460 1459 1458 1456 1454 1452 1450 1448 1445 1442 1439 1437 1436 1433 1431 1428 1426 1424 1422 1418 1413 1410 1404
1419 1423 1426 1430 1434 1437 1441 1444 1447 1450 1452 1454 1456 1457 1458 1459 1459 1459 1457 1455 1453 1451 1450 1448 1447 1444 1442 1440 1438 1434 1430 1428 1426 1424 1422 1420 1418 1415 1414 1411 1408 1404 1399
1417 1421 1424 1427 1431 1434 1438 1441 1444 1446 1448 1450 1451 1452 1453 1453 1453 1452 1451 1449 1446 1443 1441 1439 1438 1436 1434 1432 1430 1427 1423 1421 1418 1415 1412 1410 1409 1407 1405 1403 1401 1398 1394
1415 1419 1422 1425 1428 1432 1435 1437 1440 1442 1444 1445 1446 1446 1447 1447 1446 1445 1444 1442 1439 1436 1433 1431 1429 1427 1425 1424 1421 1419 1416 1414 1411 1407 1405 1402 1401 1399 1397 1395 1393 1391 1388
1414 1417 1420 1423 1426 1429 1432 1434 1436 1438 1439 1440 1440 1440 1440 1440 1439 1438 1436 1434 1432 1429 1426 1423 1421 1419 1417 1414 1412 1410 1408 1406 1403 1400 1397 1395 1394 1392 1390 1388 1386 1383 1381
1412 1415 1418 1421 1424 1427 1429 1431 1432 1433 1434 1435 1434 1434 1433 1432 1432 1430 1428 1426 1424 1421 1418 1415 1413 1411 1408 1406 1404 1401 1400 1398 1395 1392 1390 1388 1387 1385 1383 1381 1379 1377 1374
1411 1414 1417 1419 1421 1423 1425 1427 1428 1429 1430 1430 1429 1428 1427 1425 1424 1423 1421 1418 1416 1413 1410 1406 1404 1401 1399 1397 1395 1393 1391 1389 1387 1385 1383 1381 1380 1378 1377 1375 1374 1371 1369
1410 1413 1415 1417 1419 1421 1422 1424 1424 1425 1425 1424 1424 1423 1420 1419 1417 1415 1413 1410 1408 1406 1403 1398 1395 1393 1391 1389 1387 1385 1383 1382 1380 1378 1377 1375 1374 1372 1371 1370 1368 1366 1364
1409 1411 1413 1415 1416 1417 1418 1419 1419 1419 1419 1419 1417 1416 1414 1412 1410 1407 1405 1402 1400 1398 1395 1391 1388 1386 1384 1382 1380 1378 1376 1375 1373 1372 1371 1369 1368 1367 1365 1364 1363 1361 1360
1408 1410 1411 1412 1413 1414 1414 1414 1414 1412 1412 1410 1410 1409 1406 1404 1402 1400 1397 1394 1391 1389 1387 1384 1381 1379 1377 1375 1373 1371 1370 1368 1367 1366 1365 1364 1363 1361 1360 1359 1358 1357 1356
1406 1407 1409 1409 1410 1410 1410 1409 1408 1407 1405 1403 1401 1400 1399 1396 1394 1392 1389 1387 1383 1381 1379 1376 1374 1372 1370 1368 1366 1365 1363 1362 1361 1360 1359 1358 1357 1356 1355 1354 1353 1352 1352
1404 1405 1406 1406 1406 1406 1405 1404 1402 1400 1398 1396 1394 1392 1390 1388 1385 1383 1381 1379 1376 1374 1371 1369 1367 1365 1363 1361 1360 1358 1357 1356 1355 1354 1353 1352 1352 1351 1350 1349 1348 1348 1348
1401 1402 1402 1402 1401 1400 1399 1398 1396 1394 1392 1389 1387 1386 1384 1381 1378 1375 1373 1371 1369 1366 1364 1362 1360 1358 1356 1355 1353 1352 1350 1349 1349 1348 1347 1347 1346 1345 1345 1344 1344 1344 1343
1398 1398 1398 1397 1396 1395 1393 1392 1390 1388 1385 1383 1380 1378 1377 1374 1371 1368 1366 1364 1362 1359 1357 1355 1353 1351 1349 1348 1346 1345 1344 1343 1342 1342 1341 1341 1340 1340 1340 1340 1339 1339 1339
1394 1393 1393 1392 1390 1389 1387 1385 1383 1381 1379 1376 1374 1371 1369 1367 1364 1361 1358 1356 1354 1352 1350 1348 1345 1343 1342 1341 1340 1339 1337 1337 1336 1336 1336 1335 1335 1335 1335 1335 1335 1335 1335
1389 1388 1387 1386 1385 1383 1381 1379 1377 1375 1372 1370 1367 1365 1362 1359 1357 1354 1351 1349 1346 1344 1342 1340 1338 1336 1334 1333 1332 1331 1330 1330 1330 1329 1329 1329 1329 1329 1329 1329 1330 1330 1331
1384 1383 1382 1380 1379 1377 1375 1373 1371 1368 1366 1363 1361 1358 1355 1352 1349 1347 1344 1341 1339 1336 1334 1332 1330 1328 1327 1325 1324 1324 1323 1323 1323 1323 1323 1323 1323 1323 1324 1324 1325 1325 1326
1379 1378 1376 1375 1373 1371 1369 1367 1364 1362 1360 1357 1354 1351 1348 1345 1342 1339 1337 1334 1331 1329 1327 1325 1323 1321 1319 1318 1317 1316 1316 1316 1316 1316 1317 1316 1317 1317 1318 1318 1319 1320 1321